Weather History for Owosso, MI

Change the Weather History Date:

Sunday, March 10, 2013

  Actual Average (KFNT) Record (KFNT)
Temperature  
Mean Temperature 48 °F 32 °F  
Max Temperature 56 °F 41 °F 65 °F (1977)
Min Temperature 40 °F 23 °F 0 °F (1996)
Degree Days  
Heating Degree Days 17 33  
Month to date heating degree days 348  
Since 1 July heating degree days 5436  
Cooling Degree Days 0 0  
Month to date cooling degree days 0  
Year to date cooling degree days 0  
Moisture  
Dew Point 35 °F    
Average Humidity 59    
Maximum Humidity 83    
Minimum Humidity 47    
Precipitation  
Precipitation 0.00 in 0.05 in 1.03 in (1992)
Month to date precipitation 0.56  
Year to date precipitation 3.67  
Snow  
Snow 0.00 in 0.30 in 6.90 in (1992)
Month to date snowfall 2.8  
Since 1 July snowfall 41.4  
Snow Depth -    
Sea Level Pressure  
Sea Level Pressure 29.87 in    
Wind  
Wind Speed 8 mph (SSE)    
Max Wind Speed 18 mph    
Max Gust Speed 26 mph    
Visibility 10 miles    
Events Rain    
T = Trace of Precipitation, MM = Missing Value Source: NWS Daily Summary

Daily Weather History Graph

Daily Weather History Graph

Search for Another Location

Airport:

Trip Planner

Search our weather history database for the weather conditions in past years. The results will help you decide how hot, cold, wet, or windy it might be!

Date:

Astronomy

Mar. 10, 2013 Rise Set
Actual Time 7:56 AM EDT 7:37 PM EDT
Civil Twilight 7:28 AM EDT 8:05 PM EDT
Nautical Twilight 6:55 AM EDT 8:38 PM EDT
Astronomical Twilight 6:22 AM EDT 9:11 PM EDT
Moon 6:57 AM EDT (3/10) 6:43 PM EDT (3/10)
Length of Visible Light 12h 36m
Length of Day
11h 40m
Waning Crescent, 2% of the Moon is Illuminated
Mar 10
Waning Crescent
Mar 11
New
Mar 19
First Quarter
Mar 27
Full
Apr 3
Last Quarter

Hourly Weather History & Observations

Time (EDT) Temp. Windchill Dew Point Humidity Pressure Visibility Wind Dir Wind Speed Gust Speed Precip Events Conditions
12:14 AM 40.1 °F 34.7 °F 30.4 °F 68% 29.99 in 10.0 mi SSE 8.1 mph - N/A   Clear
12:35 AM 41.0 °F 36.4 °F 30.2 °F 65% 29.99 in 10.0 mi SSE 6.9 mph - N/A   Clear
12:54 AM 40.5 °F 35.1 °F 30.2 °F 67% 29.99 in 10.0 mi SSE 8.1 mph - N/A   Clear
1:15 AM 41.0 °F 35.8 °F 30.2 °F 65% 29.97 in 10.0 mi SE 8.1 mph - N/A   Clear
1:34 AM 41.0 °F 34.7 °F 30.2 °F 65% 29.97 in 10.0 mi SE 10.4 mph 16.1 mph N/A   Clear
1:55 AM 41.2 °F 35.5 °F 30.2 °F 65% 29.96 in 10.0 mi SSE 9.2 mph - N/A   Clear
3:15 AM 41.7 °F 35.6 °F 30.0 °F 63% 29.95 in 10.0 mi SSE 10.4 mph - N/A   Clear
3:35 AM 41.9 °F 35.0 °F 30.2 °F 63% 29.94 in 10.0 mi SSE 12.7 mph 16.1 mph N/A   Mostly Cloudy
3:55 AM 42.4 °F 37.0 °F 30.0 °F 61% 29.94 in 10.0 mi South 9.2 mph - N/A   Overcast
4:14 AM 42.4 °F 38.1 °F 30.0 °F 61% 29.92 in 10.0 mi South 6.9 mph - N/A   Overcast
4:35 AM 42.8 °F 38.0 °F 30.0 °F 61% 29.92 in 10.0 mi SSE 8.1 mph - N/A   Overcast
4:55 AM 43.2 °F 38.4 °F 30.2 °F 60% 29.91 in 10.0 mi SSE 8.1 mph - N/A   Overcast
5:14 AM 43.7 °F 38.6 °F 30.2 °F 59% 29.91 in 10.0 mi South 9.2 mph - N/A   Overcast
5:35 AM 43.9 °F 38.8 °F 30.2 °F 59% 29.91 in 10.0 mi SSE 9.2 mph - N/A   Overcast
5:55 AM 44.2 °F 39.2 °F 30.2 °F 58% 29.91 in 10.0 mi SSE 9.2 mph - N/A   Overcast
6:14 AM 44.6 °F 39.7 °F 30.2 °F 57% 29.90 in 10.0 mi SSE 9.2 mph - N/A   Overcast
6:35 AM 44.1 °F 38.6 °F 30.4 °F 59% 29.90 in 10.0 mi South 10.4 mph 17.3 mph N/A   Overcast
6:55 AM 44.2 °F 40.3 °F 30.6 °F 59% 29.90 in 10.0 mi South 6.9 mph - N/A   Overcast
7:14 AM 44.6 °F 39.2 °F 30.6 °F 58% 29.91 in 10.0 mi South 10.4 mph - N/A   Overcast
7:35 AM 44.8 °F 39.9 °F 30.6 °F 57% 29.91 in 10.0 mi South 9.2 mph - N/A   Overcast
8:15 AM 44.8 °F 39.9 °F 31.6 °F 60% 29.92 in 10.0 mi South 9.2 mph - N/A   Drizzle
8:35 AM 45.0 °F 40.1 °F 32.0 °F 60% 29.93 in 10.0 mi SSW 9.2 mph - N/A Rain Light Rain
8:54 AM 44.2 °F 40.3 °F 33.8 °F 67% 29.93 in 7.0 mi SSW 6.9 mph - N/A   Unknown
9:15 AM 43.9 °F 39.3 °F 35.8 °F 73% 29.93 in 10.0 mi SSW 8.1 mph - N/A   Overcast
9:34 AM 43.7 °F 39.7 °F 37.8 °F 80% 29.92 in 10.0 mi SSW 6.9 mph - N/A   Overcast
9:55 AM 43.7 °F 40.3 °F 38.3 °F 81% 29.91 in 7.0 mi SSE 5.8 mph - N/A   Unknown
10:15 AM 43.3 °F 41.7 °F 38.5 °F 83% 29.90 in 10.0 mi SSE 3.5 mph - N/A   Overcast
10:34 AM 43.7 °F 41.1 °F 38.8 °F 83% 29.89 in 10.0 mi SSE 4.6 mph - N/A   Overcast
10:55 AM 45.3 °F 41.1 °F 37.6 °F 74% 29.88 in 10.0 mi SSE 8.1 mph - N/A   Mostly Cloudy
11:15 AM 48.0 °F - 35.6 °F 62% 29.87 in 10.0 mi South 9.2 mph - N/A   Overcast
11:34 AM 49.6 °F - 34.5 °F 56% 29.88 in 10.0 mi South 10.4 mph - N/A   Overcast
11:55 AM 51.1 °F - 34.0 °F 52% 29.88 in 10.0 mi South 9.2 mph - N/A   Overcast
12:15 PM 52.0 °F - 33.8 °F 50% 29.87 in 10.0 mi South 10.4 mph 16.1 mph N/A   Overcast
12:34 PM 52.7 °F - 33.4 °F 48% 29.87 in 10.0 mi South 13.8 mph 19.6 mph N/A   Scattered Clouds
12:55 PM 53.1 °F - 33.4 °F 47% 29.87 in 10.0 mi South 11.5 mph 17.3 mph N/A   Mostly Cloudy
1:15 PM 53.4 °F - 33.8 °F 47% 29.87 in 10.0 mi South 11.5 mph - N/A   Mostly Cloudy
1:34 PM 54.0 °F - 34.3 °F 47% 29.88 in 10.0 mi SSW 9.2 mph 16.1 mph N/A   Scattered Clouds
1:55 PM 55.4 °F - 36.0 °F 48% 29.87 in 10.0 mi SSW 5.8 mph - N/A   Scattered Clouds
2:14 PM 55.8 °F - 36.1 °F 48% 29.87 in 10.0 mi South 5.8 mph - N/A   Mostly Cloudy
2:35 PM 56.1 °F - 36.1 °F 47% 29.86 in 10.0 mi South 8.1 mph - N/A   Overcast
2:54 PM 56.3 °F - 36.7 °F 48% 29.85 in 10.0 mi South 5.8 mph - N/A   Overcast
3:15 PM 56.3 °F - 37.4 °F 49% 29.86 in 10.0 mi South 5.8 mph - N/A   Overcast
3:35 PM 55.6 °F - 37.9 °F 52% 29.87 in 10.0 mi South 4.6 mph - N/A   Overcast
3:54 PM 56.5 °F - 39.0 °F 52% 29.87 in 10.0 mi South 6.9 mph - N/A   Overcast
4:15 PM 56.3 °F - 39.2 °F 53% 29.86 in 10.0 mi SSE 5.8 mph - N/A   Overcast
4:35 PM 56.3 °F - 39.7 °F 54% 29.84 in 10.0 mi SSE 5.8 mph - N/A   Overcast
4:54 PM 55.6 °F - 39.6 °F 55% 29.84 in 10.0 mi SSE 4.6 mph - N/A   Overcast
5:15 PM 55.8 °F - 39.4 °F 54% 29.82 in 10.0 mi East 5.8 mph - N/A   Overcast
5:35 PM 56.3 °F - 39.6 °F 53% 29.84 in 10.0 mi SSE 6.9 mph - N/A   Overcast
5:54 PM 55.6 °F - 39.4 °F 55% 29.84 in 10.0 mi South 3.5 mph - N/A   Overcast
6:15 PM 55.0 °F - 39.4 °F 56% 29.85 in 10.0 mi South 3.5 mph - N/A   Overcast
6:35 PM 54.7 °F - 39.6 °F 57% 29.84 in 10.0 mi ESE 3.5 mph - N/A   Overcast
6:54 PM 53.6 °F - 40.1 °F 60% 29.84 in 10.0 mi Calm Calm - N/A   Overcast
7:15 PM 53.6 °F - 39.7 °F 59% 29.82 in 10.0 mi ESE 5.8 mph - N/A   Mostly Cloudy
7:34 PM 51.8 °F - 39.6 °F 63% 29.81 in 10.0 mi East 5.8 mph - N/A   Scattered Clouds
7:55 PM 51.6 °F - 40.1 °F 65% 29.82 in 10.0 mi ESE 4.6 mph - N/A   Clear
8:15 PM 51.6 °F - 39.9 °F 64% 29.82 in 10.0 mi ESE 4.6 mph - N/A   Clear
8:34 PM 48.7 °F - 40.1 °F 72% 29.82 in 10.0 mi ESE 5.8 mph - N/A   Clear
8:55 PM 50.0 °F - 40.5 °F 70% 29.81 in 10.0 mi ESE 5.8 mph - N/A   Clear
9:14 PM 50.4 °F - 39.9 °F 67% 29.79 in 10.0 mi ESE 6.9 mph - N/A   Clear
9:35 PM 53.4 °F - 37.9 °F 56% 29.80 in 10.0 mi SSE 9.2 mph - N/A   Mostly Cloudy
10:14 PM 53.6 °F - 36.3 °F 52% 29.80 in 10.0 mi SSE 8.1 mph - N/A   Light Drizzle
10:35 PM 54.0 °F - 36.7 °F 52% 29.79 in 10.0 mi SSE 5.8 mph - N/A Rain Rain
10:54 PM 53.1 °F - 37.4 °F 55% 29.78 in 10.0 mi SSE 3.5 mph - N/A   Overcast
11:15 PM 51.6 °F - 36.5 °F 56% 29.76 in 10.0 mi ESE 4.6 mph - N/A   Mostly Cloudy
11:35 PM 52.7 °F - 36.3 °F 54% 29.77 in 10.0 mi SSE 3.5 mph - N/A   Overcast
11:54 PM 53.1 °F - 35.8 °F 52% 29.76 in 10.0 mi SSE 5.8 mph - N/A Rain Light Rain
12:15 AM 54.3 °F - 35.8 °F 50% 29.76 in 10.0 mi South 16.1 mph 21.9 mph N/A Rain Light Rain
12:35 AM 55.2 °F - 36.1 °F 49% 29.77 in 10.0 mi South 18.4 mph 26.5 mph N/A   Overcast
12:54 AM 54.3 °F - 36.7 °F 51% 29.75 in 10.0 mi South 12.7 mph 17.3 mph N/A   Overcast